Погода в Гранаде

Никарагуа     11°55′59″N   85°57′51″W
темп.,
°C
ветер,
м/с
пор.,
м/с
влажн.,
%
обл.,
%
осадки,
мм/ч
давл.,
гПа
погр.,
м
17 октября, вс
вс1700:00+23ююв119374 5.9 101317
03:00+23юз009394 0.0 101216
06:00+23з0094100 0.0 101320
09:00+28в2475100 0.0 1014634
12:00+30всв336510 1.5 10111116
15:00+29в237042 0.9 1009745
18:00+24ю229284 6.1 101133
21:00+23ю2596100 7.3 1014157
18 октября, пн
пн1800:00+23ю239683 8.9 101287
03:00+23ю009597 0.8 101118
06:00+23зюз0095100 0.8 101219
09:00+24в029127 0.0 1014262
12:00+28в347581 1.1 1011995
15:00+27вюв258081 2.3 1009533
18:00+23юв2394100 4.9 101170
21:00+23ююв2497100 4.4 1013142
19 октября, вт
вт1900:00+22ююв2296100 5.1 101271
03:00+22ююз0197100 1.1 101125
06:00+23юв129598 1.3 101246
09:00+25в268798 0.0 1014510
12:00+28в467632 0.6 10111049
15:00+27вюв357994 2.5 1010770
18:00+23вюв279498 4.8 1012134
21:00+23юв2495100 2.0 101485
20 октября, ср
ср2000:00+23ю2396100 3.9 101396
03:00+23вюв009677 1.1 101218
06:00+22ююз119677 1.2 101322
09:00+24вюв129282 0.6 1015123
12:00+27в248453 3.1 1013670
15:00+24юв2593100 3.1 1011195
18:00+23ююв2396100 5.6 101258
21:00+23ююв239571 2.6 101454
21 октября, чт
чт2100:00+23ююв129617 2.8 101337
03:00+22ю019738 0.0 101220
06:00+22ююв009739 0.0 101424
09:00+26в257880 0.0 1015570
12:00+26в138187 0.0 1013497
15:00+29в24699 0.1 1010953
18:00+25ююв1288100 0.5 101230
21:00+24ююз119278 0.9 101313